sat.trackr.live / text

‹ back to catalog

STARLINK-32914

NORAD 63086 · 2025-037K

PAYLOAD ACTIVE UNKNOWN

§ Identity

Operator
Country
US
Launch date
2025-02-23
Launch site
AFWTR
Launch vehicle
Mass (kg)
RCS (m²)

Purposes: comms

External: N2YO · Heavens-Above · Gunter

§ Orbital elements

Epoch: 2026-05-25T03:24:55.063872Z

Period
96.11 min
Inclination
70.0002°
Eccentricity
0.0003636
Mean motion
14.98344208 rev/d
Perigee alt
569.5 km
Apogee alt
574.5 km
Semi-major
6,950.1 km
B*
3.3797e-4
RAAN
161.6960°
Arg perigee
264.5443°
Mean anomaly
95.5301°
Rev number
7,005

§ Raw data

STARLINK-329141 63086U 25037K   26145.14230398  .00003943  00000+0  33797-3 0  99982 63086  70.0002 161.6960 0003636 264.5443  95.5301 14.98344208 70057

JSON: /api/v1/satellites/63086 · /tle

For live sub-satellite position, see the globe view (requires WebGL).

§ Visibility from observer

Set your observer location to see the next 7 days of passes ≥ 10°. The values pass through the URL so the page stays shareable.

No JS? Fill the form by hand. The geolocation button needs JavaScript.